Showing default

HULIANWANG DIGUI-162, 68136

Orbit data source: Space-Track

HULIANWANG DIGUI-162, 68136 is a payload satellite owned by Zhongguo Xingwang (CN) in LEO that was launched on Thu, 12 Mar 2026 UTC via a CHANG ZHENG 8A launch vehicle from the Wenchang Satellite Launch Center (WSC). Payload-class satellites include a variety of spacecraft equipped with specific instruments for various scientific and technological missions. These include communications satellites like Starlink; space stations such as the ISS; scientific satellites like the Hubble; Earth observation satellites from companies like Planet Labs, Umbra, and HawkEye 360; GPS; miniature CubeSats for education and research; and military/defense satellites.

Loading next visibility...
Identifier
68136, 2026-047H
Orbit
LEO
Country
Flag of CNCN / PRC
Related business
Manufacturer
CAST?
Mission
Operational spacecraft
Bus & Motor
XINGWANG C, Unknown motor
Mass
~700 kg wet, ~700 kg dry
Launch date (UTC)
2026-03-12 (1 month ago)
Launch vehicle
CHANG ZHENG 8A
Launch site
Wenchang Satellite Launch Center (WSC)
Object type
Payload
Rocket body
Debris
Shape & HBR
Unknown
Radar Cross Section
RCS unknown

Expand to show TLE details & history
Last TLE update: 1 day ago

TLE from 1 day ago
0 HULIANWANG DIGUI-162
1 68136U 26047H   26104.53624090 -.00000122  00000-0  18522-4 0  9993
2 68136  50.0141 287.0858 0002423 299.0279  61.0367 13.67870135  4552
Epoch: 2026-04-14T12:52Z
TLE epoch observation values (Epoch: 2026-04-14T12:52:11.213Z)
Latitude
-0.00004°
Longitude
-108.67204°
Altitude
1,006.878 km
Speed
7.35 km/s
True Right ascension
19h 08m 20s
True Declination
0° 00' 00"
Sunlit
Object was in daylight at epoch
Visualization orbit readout
Latitude
Unknown
Longitude
Unknown
Altitude
Unknown
Speed
Unknown
Apparent Right ascension
Unknown
Apparent Declination
Unknown
Sunlit
N/A
Visualization observer readout
Local Sidereal Time
20:43:24
Azimuth
Unknown
Elevation
Unknown
Doppler factor
Unknown
Orbital elements
Apogee altitude
1,009.734 km
Perigee altitude
1,006.154 km
Semi-major axis
7,386.081 km
Eccentricity
0.00024
Inclination
50.0141°
RAAN
287.0858°
Arg. of periapsis
299.0279°
True anomaly
61.061°
Mean anomaly
61.0367°
Eccentric anomaly
61.04885°
Mean motion
3.41918 °/min
Orbital period
105.29 mins
BSTAR
0.000018522
Loading maneuver chart data...
Computing Atmospheric mass density...
Loading historical data...
Loading historical data...
Loading historical data...
Loading historical data...
Loading historical data...
Loading historical data...
Loading historical data...

Documentation

Showing up to 5 results
|